User: anonymous   Login
Location: Dötzum
(52.0808°N, 9.8063°E)
Time: 20:47:01
(UTC+00:00)
Language:

UNK - Orbit

View from above orbital plane
View from above orbital plane
View from above satellite
View from above satellite

Ground track
Ground track

The orbit data is extracted from the following two-line orbital elements,

1 27940U 03042B   22230.34277445  .00000379  00000-0  78789-4 0  9998
2 27940  98.2201   6.7621 0015233  78.9906 281.3010 14.65541770  9465
Epoch (UTC): 18 August 2022 08:13:35
Eccentricity: 0.0015233
inclination: 98.2201°
perigee height: 664 km
apogee height: 686 km
right ascension of ascending node: 6.7621°
argument of perigee: 78.9906°
revolutions per day: 14.65541770
mean anomaly at epoch: 281.3010°
orbit number at epoch: 946

The dashed part of the orbit path shows where the satellite is in the earth's shadow,  

DLR